Voltar ao catálogo

DELTA 1 DEB

AtivoUNKNOWN
NORAD 42578·DEBRIS·🇺🇸 United States

Lançado Nov 6, 1973 de Vandenberg Space Force Base

Loading…

Próximas Passagens (próximas 24 horas)

TLE

EnvelhecendoSource: Space-Track

Época: Aug 24, 2026, 13:45 UTC

1 42578U 73086HS  26236.57332969  .00001547  00000-0  18255-1 0  9992
2 42578 100.6626 102.9619 0830260 307.5351  45.2970 11.39243954 89050

Acompanhe DELTA 1 DEB em tempo real com AllMySat

Download on the App Store